When you browse on this site, cookies collect data to enhance your experience and personalize the content and advertising you see.
Visit our Privacy Policy to learn more. By continuing to use the site, you agree to this use of cookies and data.
  • In France
  • List of Countries
  • For 7 days
  • Water Temperature
  • Satellite Maps
  • Weather Map
  • Weather Widgets
  • user-avatar
    Login

    Hourly Weather Obrebizna

    Today, 19 February, Tuesday

    Time Temperature Precipitation Wind Pressure Humidity
    00:00 +3°C° 0 mm 3 mps 753 mmHg 74%
    01:00 +3°C° 0 mm 3 mps 753 mmHg 76%
    02:00 +2°C° 0 mm 3 mps 752 mmHg 77%
    03:00 +2°C° 0 mm 3 mps 752 mmHg 78%
    04:00 +1°C° 0 mm 3 mps 751 mmHg 78%
    05:00 +1°C° 0 mm 3 mps 751 mmHg 79%
    06:00 +1°C° 0 mm 3 mps 751 mmHg 79%
    07:00 0°C° 0 mm 4 mps 751 mmHg 80%
    08:00 +1°C° 0 mm 4 mps 750 mmHg 74%
    09:00 +3°C° 0 mm 5 mps 750 mmHg 68%
    10:00 +5°C° 0 mm 5 mps 750 mmHg 62%
    11:00 +6°C° 0 mm 5 mps 750 mmHg 59%
    12:00 +8°C° 0 mm 6 mps 750 mmHg 57%
    13:00 +9°C° 0 mm 6 mps 750 mmHg 54%
    14:00 +9°C° 0 mm 6 mps 749 mmHg 58%
    15:00 +9°C° 0 mm 5 mps 749 mmHg 62%
    16:00 +9°C° 0 mm 5 mps 749 mmHg 66%
    17:00 +8°C° 0.1 mm 5 mps 749 mmHg 72%
    18:00 +8°C° 0.1 mm 5 mps 750 mmHg 78%
    19:00 +7°C° 0.1 mm 5 mps 750 mmHg 84%
    20:00 +7°C° 0.1 mm 5 mps 750 mmHg 81%
    21:00 +6°C° 0.1 mm 5 mps 750 mmHg 79%
    22:00 +6°C° 0.1 mm 5 mps 750 mmHg 76%
    23:00 +5°C° 0 mm 5 mps 750 mmHg 79%

    Tomorrow, 20 February, Wednesday

    Time Temperature Precipitation Wind Pressure Humidity
    00:00 +5°C° 0 mm 5 mps 750 mmHg 82%
    01:00 +3°C° 0 mm 6 mps 751 mmHg 85%
    02:00 +3°C° 0 mm 6 mps 751 mmHg 86%
    03:00 +2°C° 0 mm 6 mps 751 mmHg 87%
    04:00 +2°C° 0 mm 6 mps 751 mmHg 88%
    05:00 +2°C° 0 mm 6 mps 751 mmHg 88%
    06:00 +2°C° 0 mm 6 mps 751 mmHg 87%
    07:00 +2°C° 0 mm 6 mps 752 mmHg 87%
    08:00 +3°C° 0 mm 7 mps 752 mmHg 82%
    09:00 +3°C° 0 mm 7 mps 753 mmHg 78%
    10:00 +4°C° 0 mm 8 mps 753 mmHg 73%
    11:00 +4°C° 0.1 mm 8 mps 753 mmHg 72%
    12:00 +4°C° 0.1 mm 8 mps 753 mmHg 70%
    13:00 +4°C° 0.1 mm 8 mps 754 mmHg 69%
    14:00 +4°C° 0.1 mm 7 mps 754 mmHg 69%
    15:00 +4°C° 0.1 mm 7 mps 754 mmHg 69%
    16:00 +4°C° 0.1 mm 7 mps 754 mmHg 68%
    17:00 +4°C° 0.1 mm 6 mps 755 mmHg 72%
    18:00 +5°C° 0.1 mm 5 mps 755 mmHg 76%
    19:00 +5°C° 0.1 mm 5 mps 755 mmHg 80%
    20:00 +5°C° 0 mm 4 mps 755 mmHg 80%
    21:00 +4°C° 0 mm 4 mps 756 mmHg 81%
    22:00 +4°C° 0 mm 4 mps 756 mmHg 82%
    23:00 +4°C° 0 mm 4 mps 756 mmHg 83%

    Day after tomorrow, 21 February, Thursday

    Time Temperature Precipitation Wind Pressure Humidity
    00:00 +4°C° 0 mm 4 mps 756 mmHg 85%
    01:00 +4°C° 0 mm 4 mps 756 mmHg 87%
    02:00 +4°C° 0.1 mm 4 mps 756 mmHg 88%
    03:00 +4°C° 0.1 mm 4 mps 755 mmHg 88%
    04:00 +4°C° 0.1 mm 4 mps 755 mmHg 89%
    05:00 +3°C° 0.3 mm 5 mps 755 mmHg 88%
    06:00 +3°C° 0.3 mm 5 mps 755 mmHg 88%
    07:00 +3°C° 0.3 mm 5 mps 755 mmHg 87%
    08:00 +3°C° 0.6 mm 5 mps 755 mmHg 87%
    09:00 +3°C° 0.6 mm 6 mps 755 mmHg 88%
    10:00 +3°C° 0.6 mm 6 mps 755 mmHg 88%
    11:00 +4°C° 0.8 mm 6 mps 755 mmHg 88%
    12:00 +4°C° 0.8 mm 6 mps 754 mmHg 88%
    13:00 +4°C° 0.8 mm 6 mps 754 mmHg 88%
    14:00 +4°C° 0.8 mm 6 mps 754 mmHg 89%
    15:00 +4°C° 0.8 mm 6 mps 754 mmHg 89%
    16:00 +4°C° 0.8 mm 6 mps 754 mmHg 89%
    17:00 +5°C° 0.2 mm 5 mps 754 mmHg 90%
    18:00 +5°C° 0.2 mm 5 mps 754 mmHg 91%
    19:00 +5°C° 0.2 mm 5 mps 754 mmHg 92%
    20:00 +5°C° 0.4 mm 5 mps 754 mmHg 92%
    21:00 +5°C° 0.4 mm 5 mps 755 mmHg 92%
    22:00 +5°C° 0.4 mm 5 mps 755 mmHg 92%
    23:00 +5°C° 0.3 mm 5 mps 755 mmHg 92%

    22 February, Friday

    Time Temperature Precipitation Wind Pressure Humidity
    00:00 +5°C° 0.3 mm 5 mps 756 mmHg 92%
    01:00 +4°C° 0.3 mm 6 mps 756 mmHg 92%
    02:00 +3°C° 0.2 mm 6 mps 757 mmHg 89%
    03:00 +2°C° 0.2 mm 6 mps 758 mmHg 86%
    04:00 +1°C° 0.2 mm 6 mps 758 mmHg 84%
    05:00 -1°C° 0 mm 6 mps 759 mmHg 81%
    06:00 -2°C° 0 mm 7 mps 761 mmHg 78%
    07:00 -3°C° 0 mm 7 mps 762 mmHg 76%
    08:00 -3°C° 0 mm 6 mps 763 mmHg 70%
    09:00 -3°C° 0 mm 6 mps 764 mmHg 65%
    10:00 -2°C° 0 mm 5 mps 765 mmHg 59%
    11:00 -1°C° 0 mm 5 mps 766 mmHg 56%
    12:00 -1°C° 0 mm 5 mps 766 mmHg 52%
    13:00 0°C° 0 mm 5 mps 767 mmHg 49%
    14:00 -1°C° 0 mm 5 mps 767 mmHg 48%
    15:00 -1°C° 0 mm 5 mps 768 mmHg 48%
    16:00 -1°C° 0 mm 5 mps 768 mmHg 47%
    17:00 -2°C° 0 mm 4 mps 769 mmHg 50%
    18:00 -2°C° 0 mm 4 mps 769 mmHg 53%
    19:00 -2°C° 0 mm 3 mps 770 mmHg 56%
    20:00 -2°C° 0 mm 3 mps 771 mmHg 55%
    21:00 -2°C° 0 mm 3 mps 771 mmHg 53%
    22:00 -2°C° 0 mm 3 mps 771 mmHg 51%
    23:00 -3°C° 0 mm 2 mps 771 mmHg 49%

    23 February, Saturday

    Time Temperature Precipitation Wind Pressure Humidity
    00:00 -1°C° 0 mm 1 mps 771 mmHg 48%
    01:00 -1°C° 0 mm 1 mps 772 mmHg 46%
    02:00 -2°C° 0 mm 0 mps 771 mmHg 46%
    03:00 -2°C° 0 mm 0 mps 771 mmHg 46%
    04:00 -2°C° 0 mm 0 mps 771 mmHg 45%
    05:00 -2°C° 0 mm 0 mps 771 mmHg 46%
    06:00 -2°C° 0 mm 0 mps 771 mmHg 46%
    07:00 -1°C° 0 mm 1 mps 771 mmHg 46%
    08:00 0°C° 0 mm 1 mps 771 mmHg 42%
    09:00 -1°C° 0 mm 2 mps 771 mmHg 37%
    10:00 +1°C° 0 mm 2 mps 771 mmHg 33%
    11:00 0°C° 0 mm 3 mps 770 mmHg 33%
    12:00 0°C° 0 mm 3 mps 770 mmHg 34%
    13:00 0°C° 0 mm 3 mps 769 mmHg 34%
    14:00 +1°C° 0 mm 3 mps 769 mmHg 35%
    15:00 +1°C° 0 mm 3 mps 768 mmHg 36%
    16:00 +2°C° 0 mm 2 mps 768 mmHg 37%
    17:00 +2°C° 0 mm 2 mps 768 mmHg 40%
    18:00 +1°C° 0 mm 2 mps 767 mmHg 43%
    19:00 +1°C° 0 mm 2 mps 767 mmHg 46%
    20:00 +1°C° 0 mm 2 mps 767 mmHg 47%
    21:00 +1°C° 0 mm 2 mps 767 mmHg 48%
    22:00 +1°C° 0 mm 2 mps 767 mmHg 49%
    23:00 +1°C° 0 mm 2 mps 767 mmHg 54%

    24 February, Sunday

    Time Temperature Precipitation Wind Pressure Humidity
    00:00 -1°C° 0 mm 2 mps 767 mmHg 59%
    01:00 +1°C° 0 mm 1 mps 767 mmHg 63%
    02:00 -1°C° 0 mm 2 mps 767 mmHg 68%
    03:00 -1°C° 0 mm 2 mps 767 mmHg 73%
    04:00 -1°C° 0 mm 2 mps 767 mmHg 78%
    05:00 -1°C° 0 mm 2 mps 767 mmHg 81%
    06:00 +2°C° 0 mm 1 mps 767 mmHg 84%
    07:00 +2°C° 0 mm 1 mps 767 mmHg 86%
    08:00 +2°C° 0 mm 1 mps 767 mmHg 86%
    09:00 +3°C° 0 mm 1 mps 768 mmHg 86%
    10:00 +3°C° 0 mm 1 mps 768 mmHg 86%
    11:00 +4°C° 0 mm 1 mps 768 mmHg 84%
    12:00 +5°C° 0 mm 1 mps 768 mmHg 82%
    13:00 +5°C° 0 mm 1 mps 768 mmHg 80%
    14:00 +5°C° 0 mm 1 mps 767 mmHg 81%
    15:00 +5°C° 0 mm 1 mps 767 mmHg 82%
    16:00 +5°C° 0 mm 1 mps 767 mmHg 83%
    17:00 +4°C° 0 mm 2 mps 767 mmHg 86%
    18:00 +3°C° 0 mm 2 mps 766 mmHg 89%
    19:00 +2°C° 0 mm 2 mps 766 mmHg 92%
    20:00 +2°C° 0 mm 2 mps 766 mmHg 92%
    21:00 +2°C° 0 mm 2 mps 766 mmHg 93%
    22:00 +2°C° 0 mm 2 mps 765 mmHg 93%
    23:00 +3°C° 0 mm 2 mps 765 mmHg 93%
    Show more